Current weather by "City, St" or "zip code"  
 
Advertise Here

Current Conditions: Thomasville Regional Airport, GA

Thunderstorm in Vicinity


81.0 F

Last Updated on Jul 26 2021, 11:55 pm EDT
Humidity: 89%
Wind Speed: N 0.0 mph
Barometer 29.99 in
Dewpoint: 77.0 F
Visibility: 10.00 mi
Precip: --
Heat Index: 88 F
Wind Chill: NA
Current conditions at:

Thomasville Regional Airport, GA (KTVI)

Lat: 30.90179 Lon: 83.88113

Local Radar Image active severe weather and emergency alerts image image weather storm and storm spotter reports image weather observation monitoring service image
Local
Radar
Active
Alerts
Storm Reports Obs
Monitoring

Sign-up For Email & Text Message Weather Alert Notification Services


Advertise Here

Observation History for Thomasville Regional Airport, GA


Time Wind
(mph)
Vis
(mi)
Weather Precip (in) Temperature (F) Relative
Humidity
Wind
Chill
(F)
Heat
Index
(F)
Pressure
Air Dwpt altimeter
(in)
sea level
(mb)
Rmks
11:55 pm EDT N 0.0 10.00 Thunderstorm in Vicinity -- 81.0 77.0 89% NA 88 29.99 M
10:55 pm EDT N 0.0 10.00 Partly Cloudy -- 81.0 77.0 89% NA 88 29.99 M
9:55 pm EDT N 0.0 10.00 Partly Cloudy -- 81.0 77.0 89% NA 88 29.97 M
8:55 pm EDT N 0.0 10.00 Partly Cloudy -- 81.0 77.0 89% NA 88 29.96 M
8:35 pm EDT N 0.0 10.00 Partly Cloudy -- 82.0 77.0 84% NA 90 29.95 M
7:55 pm EDT N 0.0 10.00 Fair -- 84.0 77.0 79% NA 94 29.94 M
6:55 pm EDT N 0.0 10.00 Fair -- 88.0 77.0 70% NA 100 29.93 M
5:55 pm EDT N 0.0 10.00 Fair -- 90.0 73.4 59% NA 99 29.93 M
5:35 pm EDT N 0.0 10.00 Partly Cloudy -- 90.0 73.4 59% NA 99 29.93 M
4:55 pm EDT NE 3.5 10.00 Partly Cloudy -- 90.0 73.4 59% NA 99 29.94 M
4:35 pm EDT N 0.0 10.00 Partly Cloudy -- 90.0 73.4 59% NA 99 29.94 M
3:55 pm EDT N 4.6 10.00 Mostly Cloudy -- 90.0 73.4 59% NA 99 29.95 M
2:55 pm EDT NE 3.5 10.00 Partly Cloudy -- 88.0 73.4 62% NA 96 29.97 M
2:35 pm EDT N 4.6 10.00 Fair -- 88.0 73.4 62% NA 96 29.98 M
1:55 pm EDT N 6.9 10.00 Fair -- 88.0 73.4 62% NA 96 29.99 M
1:35 pm EDT NW 6.9 10.00 Fair -- 86.0 71.6 62% NA 92 29.99 M
12:55 pm EDT NW 3.5 10.00 Fair -- 84.0 71.6 66% NA 89 30.00 M
11:55 am EDT NE 3.5 10.00 Fair -- 84.0 71.6 66% NA 89 30.03 M
8:35 am EDT N 0.0 10.00 Fair -- 73.0 71.6 94% NA NA 30.01 M
7:55 am EDT N 0.0 10.00 Fair -- 72.0 69.8 94% NA NA 29.99 M
6:55 am EDT N 0.0 7.00 Fair -- 70.0 69.8 100% NA NA 29.98 M
6:35 am EDT N 0.0 10.00 Fair -- 70.0 69.8 100% NA NA 29.97 M
5:55 am EDT N 0.0 10.00 Fair -- 72.0 69.8 94% NA NA 29.96 M
4:55 am EDT N 0.0 10.00 Fair -- 72.0 71.6 100% NA NA 29.95 M

Regional Weather Observation


Moultrie, Moultrie Municipal Airport, GA (KMGR)

Thunderstorm in Vicinity
79.0 F

Southwest Georgia Regional Airport, GA (KABY)

Fair
81.0 F

Thomasville Regional Airport, GA (KTVI)

Thunderstorm in Vicinity
81.0 F

Bainbridge, Decatur County Industrial Air Park Airport, GA (KBGE)

Thunderstorm in Vicinity
81.0 F

Donalsonville Municipal Airport, GA (K17J)

Fair
80.0 F

Tifton Henry Tift Myers, GA (KTMA)

Thunderstorm in Vicinity
80.0 F
Advertise Here

Advertise Here